Regional Weather Roundup
Issued by NWS Midland/Odessa, TX

Skip options and go directly to product.
Home | Oldest Version | Previous Version | Current Version | All | Text Only | Save Text | Print | Product List | Glossary On

Skip product version selection by date and time.   
031
ASUS44 KMAF 261410
RWRMAF
MIDLAND AREA WEATHER ROUNDUP
NATIONAL WEATHER SERVICE MIDLAND TX
800 AM CST WED NOV 26 2014

...IN SOUTHWEST TEXAS AND SOUTHEAST NEW MEXICO...

CITY           SKY/WX    TMP DP  RH WIND       PRES   REMARKS
ALPINE         CLEAR     48   6  18 W14G23    30.34S
ANDREWS        FAIR      43  14  30 W9        30.20R WCI  38
ARTESIA        NOT AVBL
BIG SPRING     CLEAR     37  21  51 SE5       30.21R WCI  34
CARLSBAD       PTCLDY    34  17  50 S6        30.21R WCI  29
DRYDEN           N/A     50  12  21 W14       30.23R
FORT STOCKTON  PTCLDY    47  11  23 SW13      30.24R
GUAD PASS      NOT AVBL
HOBBS          CLEAR     41  16  36 W14       30.20R WCI  33
MARFA          PTCLDY    39   9  28 CALM      30.33R
MIDLAND AIRPK  CLEAR     44  16  31 W8        30.21R WCI  40
MIDLAND INTL   CLEAR     43  14  31 W13       30.20R WCI  36
ODESSA         PTCLDY    41  13  31 W9        30.22R WCI  35
PECOS          CLEAR     47  12  24 W7        30.23R
PRESIDIO       FAIR      37  17  45 N6        30.34R WCI  32
SEMINOLE       CLEAR     41  17  38 NW10      30.19R WCI  34
SNYDER         CLEAR     35  21  57 CALM      30.19R
WINK           PTCLDY    33  17  51 CALM      30.22R
$$
...OTHER STATIONS IN TEXAS...

CITY           SKY/WX    TMP DP  RH WIND       PRES   REMARKS
ABILENE        CLEAR     41  24  51 CALM      30.15R
AMARILLO       CLEAR     33  29  85 N10       30.22R WCI  25
AUSTIN         CLEAR     44  34  67 S5        30.20S
BROWNSVILLE    SUNNY     49  45  86 W3        30.32R
CORPUS CHRISTI SUNNY     45  40  82 SW7       30.28R
DALLAS FTW     PTCLDY    40  30  67 SW6       30.07R WCI  36
DEL RIO        CLEAR     36  33  89 N7        30.24R WCI  30
EL PASO        PTCLDY    31  10  41 CALM      30.33R
HOUSTON INT    SUNNY     51  42  71 SW7       30.23R
LUBBOCK        PTCLDY    38  24  57 N17       30.19R WCI  28
SAN ANGELO     CLEAR     40  21  46 SW9       30.19R WCI  34
SAN ANTONIO    CLEAR     51  32  48 W9        30.24R
WACO           CLEAR     44  32  62 SW10      30.13R WCI  39
WICHITA FALLS  NOT AVBL
$$
...OTHER LOCATIONS IN NEW MEXICO...

CITY           SKY/WX    TMP DP  RH WIND       PRES   REMARKS
ALAMAGORDO     PTCLDY    27   7  43 CALM      30.32R
ALBUQUERQUE    PTCLDY    32   7  35 CALM      30.36R
CANNON AFB     PTCLDY    34  21  60 NE7       30.24R WCI  28
CLOVIS         PTCLDY    34  21  60 N12       30.23R WCI  25
HOLLOMAN AFB   PTCLDY    29   7  39 N12       30.31R WCI  20
ROSWELL        PTCLDY    29  17  61 S8        30.22R WCI  21
RUIDOSO        CLEAR     39  18  41 W9        30.33R WCI  33
SANTA FE       PTCLDY    31  12  45 SW9       30.30R WCI  23
TRUTH OR CONSE CLEAR     32  11  41 NW6       30.34R WCI  26
TUCUMCARI      CLOUDY    30  24  78 CALM      30.24R
$$

USA.gov is the U.S. government's official web portal to all federal, state and local government web resources and services.